This is the latest recevied weather packets stored in our database for station/object WV5G-13. If no packets are shown the sender has not sent any weather packets the latest 10 day(s).
| Time | Temp. | Humidity | Pressure | Rain* | Wind** | Luminosity | Snow |
|---|---|---|---|---|---|---|---|
| 1777822751 | 18.89° C | 40% | 1017.4 hPa | 0 mm | - | 685 W/m² | - |
| 1777822449 | 18.89° C | 41% | 1017.4 hPa | 0 mm | - | 666 W/m² | - |
| 1777822146 | 18.89° C | 44% | 1017.5 hPa | 0 mm | - | 640 W/m² | - |
| 1777821843 | 18.89° C | 43% | 1017.5 hPa | 0 mm | - | 618 W/m² | - |
| 1777821540 | 18.33° C | 44% | 1017.6 hPa | 0 mm | - | 592 W/m² | - |
| 1777821239 | 17.78° C | 45% | 1017.5 hPa | 0 mm | - | 572 W/m² | - |
| 1777820935 | 17.78° C | 46% | 1017.6 hPa | 0 mm | - | 554 W/m² | - |
| 1777820631 | 18.33° C | 45% | 1017.7 hPa | 0 mm | - | 545 W/m² | - |
| 1777820328 | 17.22° C | 46% | 1017.6 hPa | 0 mm | - | 532 W/m² | - |
| 1777820026 | 17.78° C | 45% | 1017.6 hPa | 0 mm | - | 518 W/m² | - |
| 1777819722 | 17.78° C | 47% | 1017.9 hPa | 0 mm | - | 501 W/m² | - |
| 1777819421 | 17.22° C | 47% | 1017.8 hPa | 0 mm | - | 478 W/m² | - |
| 1777819118 | 17.22° C | 48% | 1017.9 hPa | 0 mm | - | 459 W/m² | - |
| 1777818814 | 17.22° C | 48% | 1018.2 hPa | 0 mm | - | 436 W/m² | - |
| 1777818510 | 16.67° C | 49% | 1018 hPa | 0 mm | - | 412 W/m² | - |
| 1777818208 | 16.11° C | 51% | 1018.2 hPa | 0 mm | - | 391 W/m² | - |
| 1777817904 | 15.56° C | 52% | 1017.8 hPa | 0 mm | - | 372 W/m² | - |
| 1777817602 | 15.56° C | 54% | 1018.2 hPa | 0 mm | - | 356 W/m² | - |
| 1777817298 | 15° C | 55% | 1017.9 hPa | 0 mm | - | 340 W/m² | - |
| 1777816995 | 14.44° C | 56% | 1017.9 hPa | 0 mm | - | 321 W/m² | - |
| 1777816691 | 13.89° C | 58% | 1018.1 hPa | 0 mm | - | 304 W/m² | - |
| 1777816389 | 13.33° C | 60% | 1018 hPa | 0 mm | - | 282 W/m² | - |
| 1777816087 | 13.89° C | 59% | 1018.1 hPa | 0 mm | - | 263 W/m² | - |
| 1777815784 | 12.78° C | 62% | 1018.1 hPa | 0 mm | - | 245 W/m² | - |
| 1777815481 | 12.22° C | 63% | 1017.9 hPa | 0 mm | - | 229 W/m² | - |
* Rain latest hour (hover to see other rain measurements)
** Current wind speed in m/s (hover to see current wind gust speed)